Погода в Вожах

Россия / Республика Татарстан     55°06′05″N   49°35′17″E
темп.,
°C
ветер,
м/с
пор.,
м/с
влажн.,
%
обл.,
%
осадки,
мм/ч
давл.,
гПа
погр.,
м
23 апреля, пт
пт2300:00+6ю5117855 0.0 1025309
03:00+5ю598680 0.0 1025218
06:00+5ююв478666 0.0 1026245
09:00+11ю45675 0.0 1026628
12:00+14ююв335589 0.0 10251445
15:00+14вюв235299 0.1 10231164
18:00+13вюв5861100 0.1 1022326
21:00+9в3673100 0.1 1021100
24 апреля, сб
сб2400:00+9в3676100 0.0 1019125
03:00+8в3680100 0.0 1017143
06:00+8в4789100 0.0 1016373
09:00+7всв3690100 1.7 1014404
12:00+7всв3591100 1.4 1013345
15:00+8вюв3488100 2.1 1011407
18:00+7юв3690100 0.1 1010302
21:00+6юв4795100 0.1 1008161
25 апреля, вс
вс2500:00+7юв6139190 0.1 1005422
03:00+7юз81388100 0.9 1003747
06:00+5юз71180100 0.3 1005869
09:00+8юз9116199 0.3 10051593
12:00+8з8136071 0.2 10071692
15:00+11зюз913415 0.4 10092529
18:00+8зюз81350100 0.1 10111187
21:00+6юз714595 0.3 1013613
26 апреля, пн
пн2600:00+4юз815660 0.0 1013626
03:00+4юз715695 0.0 1015589
06:00+4юз614700 0.0 1016556
09:00+9юз913471 0.0 10151434
12:00+12юз10133870 0.0 10152020
15:00+12зюз81244100 0.0 10152237
18:00+9з366212 0.0 1014282
21:00+7ююз226996 0.0 101416
27 апреля, вт
вт2700:00+7юв236898 0.0 101247
03:00+4ююв476522 0.0 1010119
06:00+6ююв496418 0.0 1009260
09:00+11ююз794496 0.0 10081944
12:00+6зюз798093 0.2 1008787
15:00+10з594485 0.2 10082186
18:00+8з5955100 0.1 1008588
21:00+6ююз5975100 0.6 1009344